Find Starlink 31593

NORAD ID: 59350 Int'l Des: 2024-060 Owner: SPXS Country: US Constellation: starlink operational
LEOCIRCULAR

Current View

Loading 3D Globe...

About Starlink 31593

Starlink 31593 (NORAD 59350) is a starlink constellation satellite (v2 mini) launched Mar 31, 2024 by SPXS of US. It operates in LEO, CIRCULAR orbit with a mass of 730.00 kg.

Upcoming Passes

Passes for default location (London). Set your location on the main map for personalized predictions.

Altitude History

Loading altitude history...

Two-Line Element Set

1 59350U 24060C 26263.97492621 -.00003050 00000-0 -10140-3 0 9992
2 59350 43.0000 236.6023 0000481 161.9771 198.1098 15.27573541139939
Epoch: Sep 20, 2026 • Age: 22 hours

Current Status

Altitude 482.4 km
Apogee / Perigee N/A
Velocity 7.63 km/s
Sub-Earth Point 10.30°N, 79.69°W
Launch Date Mar 31, 2024
Age 2.4 years
Type internet

Technical Details

Classification Payload
Mass 730.00 kg
Dry Mass 700.00 kg
Length 0.30 m
Span 29.00 m
Shape ? Box + pan
Manufacturer SPXS
Bus Type Starlink V2M
Phase Status In Orbit
Owner/State SPXS/US

Most Searched